INTELSAT 33E DEB, 61996

Orbit data source: Space-Track

INTELSAT 33E DEB, 61996 is space debris in GEO originally from a launch on Wed, 24 Aug 2016 UTC launched from the French Guiana (FRGUI). Debris objects in space refer to the collection of defunct objects orbiting the Earth. Examples of debris include non-operational satellites, rocket bodies, and fragments generated from explosions, collisions, or faulty payload assembly.

Not visible in the next 10 days
Identifier
61996, 2016-053N
Orbit
GEO
Country
Flag of USUS / ITSO
Related business
Manufacturer
Boeing/ES
Mission
Spacecraft
Bus & Motor
Unknown
Mass
Unknown
Launch date (UTC)
2016-08-24 (10 years ago)
Launch vehicle
Unknown
Launch site
French Guiana (FRGUI)
Object type
Payload
Rocket body
Debris
Shape & HBR
Unknown shape, 1.1 m
Radar Cross Section
RCS unknown

Expand to show TLE details & history
Last TLE update: 2 days ago

TLE from 2 days ago
0 INTELSAT 33E DEB
1 61996U 16053N   26165.28210787 -.00000036  00000-0  00000-0 0  9991
2 61996   1.4225  67.6975 0054661 339.4547  19.2694  1.00615878  6074
Epoch: 2026-06-14T06:46Z
TLE epoch observation values (Epoch: 2026-06-14T06:46:14.119Z)
Latitude
Longitude
62.48167°
Altitude
35,472.116 km
Speed
3.094 km/s
True Right ascension
04h 26m 30s
True Declination
0° 00' 00"
Sunlit
Object was in daylight at epoch
Visualization orbit readout
Latitude
Unknown
Longitude
Unknown
Altitude
Unknown
Speed
Unknown
Apparent Right ascension
Unknown
Apparent Declination
Unknown
Sunlit
N/A
Visualization observer readout
Local Sidereal Time
05:44:43
Azimuth
Unknown
Elevation
Unknown
Doppler factor
Unknown
Orbital elements
Apogee altitude
35,921.437 km
Perigee altitude
35,461.523 km
Semi-major axis
42,069.617 km
Eccentricity
0.00547
Inclination
1.4225°
RAAN
67.6975°
Arg. of periapsis
339.4547°
True anomaly
19.47745°
Mean anomaly
19.2694°
Eccentric anomaly
19.37329°
Mean motion
0.25153 °/min
Orbital period
1,431.24 mins
BSTAR
0
Loading maneuver chart data...
Computing Atmospheric mass density...
Loading historical data...
Loading historical data...
Loading historical data...
Loading historical data...
Loading historical data...
Loading historical data...
Loading historical data...

Documentation

Showing up to 5 results
|